Location: Christianberg
(48.9086°N, 14.0209°E)
Time: 22:46:58
(UTC+00:00)

Landsat 4 - Pass Details

Date: 20 June 2021
Orbit: 502 x 522 km, 98.2° (Epoch: 04 August)

Event Time Altitude Azimuth Distance (km) Brightness Sun altitude
Rises 01:24:11 0° 15° (NNE) 2,661 8.9 -11.3°
Reaches altitude 10° 01:26:19 10° 17° (NNE) 1,766 7.8 -11.1°
Maximum altitude 01:30:07 76° 103° (ESE) 541 3.8 -10.8°
Enters shadow 01:33:28 13° 189° (S) 1,575 5.6 -10.5°
